[Date Prev][Date Next][Thread Prev][Thread Next] - [Date Index][Thread Index][Author Index]

2 Line ISS Keps 6-11



ISS
1 25544U 98067A   01162.17609954  .00043317  00000-0  49398-3 0   705
2 25544  51.5705 119.0368 0017379 147.2913  51.9395 15.61602350146133


----
Via the sarex mailing list at AMSAT.ORG courtesy of AMSAT-NA.
To unsubscribe, send "unsubscribe sarex" to Majordomo@amsat.org



AMSAT Top AMSAT Home